User: anonymous   Login
Location: Pine Mountain Observatory
(43.7910°N, 120.9377°W)
Time: 17:03:29
(UTC-07:00)
Language:

Cosmos 1076 Rocket - Orbit

View from above orbital plane
View from above orbital plane
View from above satellite
View from above satellite

Ground track
Ground track

The orbit data is extracted from the following two-line orbital elements,

1 11267U 79011B   16148.31660273  .00000133  00000-0  11470-4 0  9997
2 11267  82.5267 233.7476 0018464  74.6060 285.7196 14.88759573 18056
Epoch (UTC): 27 May 2016 07:35:54
Eccentricity: 0.0018464
inclination: 82.5267°
perigee height: 589 km
apogee height: 615 km
right ascension of ascending node: 233.7476°
argument of perigee: 74.6060°
revolutions per day: 14.88759573
mean anomaly at epoch: 285.7196°
orbit number at epoch: 1805

The dashed part of the orbit path shows where the satellite is in the earth's shadow,  

DLR